[[{"header":{"parameterUnit":"m.s-1","parameterCategory":2,"la1":30.2991,"la2":30.254,"lo1":-89.0895,"lo2":-89.0444,"dy":0.0017,"dx":0.0017,"nx":28,"ny":28,"refTime":"2024-09-29T21:00:00:Z","depth":"0","parameterNumber":2,"parameterNumberName":"U-component_of_CURRENTS"},"data":[0,0,0,0,0,0,0,0,0,0,0,0,0,0,0,0,0,0,0,0,0,0,0,0,0,0,0,0,0,0,0,0,0,0,0,0,0,0,0,0,0,0,0,0,0,0,0,0,0,0,0,0,0,0,0,0,0,0,0.2643,0.2644,0,0.2686,0.2687,0.2687,0.2681,0.268,0.2679,0.2679,0.2668,0.2668,0.2668,0,0,0,0,0,0,0,0,0,0,0,0,0,0.2572,0.2573,0.2643,0.2644,0.2644,0.2686,0.2687,0.2687,0.2681,0.268,0.2679,0.2678,0.2667,0.2668,0.2668,0,0,0,0,0,0,0,0,0,0,0,0,0,0.2607,0.2574,0.2643,0.2647,0.2648,0.2686,0.2687,0.2687,0.2681,0.268,0.2679,0.2678,0.2667,0.2668,0.2668,0.269,0,0,0.2669,0.267,0,0,0,0,0,0,0,0,0.2605,0.2609,0.2646,0.2647,0.2648,0.2678,0.2658,0.2686,0.2681,0.2667,0.2679,0.2678,0.2667,0.2668,0.2677,0.2689,0.2689,0.267,0.267,0.267,0.267,0,0,0,0,0,0,0,0.2602,0.2608,0.2659,0.2646,0.2648,0.2653,0.2656,0.2663,0.267,0.2668,0.2668,0.2675,0.2667,0.2677,0.2677,0.2689,0.267,0.267,0.267,0.267,0.2753,0.2755,0,0,0,0,0,0,0.26,0.2605,0.2658,0.266,0.2625,0.2655,0.2659,0.2668,0.2671,0.2672,0.2676,0.2675,0.2677,0.2676,0.2676,0.2734,0.267,0.267,0.2671,0.2751,0.2753,0.2755,0,0,0,0,0,0,0.2598,0.2604,0.2656,0.2634,0.2641,0.2657,0.2668,0.267,0.2681,0.2678,0.2677,0.2685,0.2676,0.2676,0.2696,0.2732,0.2671,0.2671,0.2749,0.2752,0.2754,0.2828,0,0,0,0,0,0,0.2596,0.2603,0.2616,0.2634,0.2643,0.2685,0.2669,0.2671,0.2687,0.2685,0.2685,0.2683,0.2675,0.2695,0.2696,0.2731,0.2671,0.2746,0.275,0.2753,0.2823,0.2833,0.2842,0,0,0,0,0,0.2593,0.2616,0.2617,0.2623,0.2657,0.2687,0.2692,0.2698,0.2688,0.2702,0.2705,0.2683,0.2719,0.2697,0.2698,0.2734,0.2744,0.2749,0.2753,0.2819,0.2831,0.2841,0,0,0,0,0,0,0.2601,0.2619,0.2619,0.2648,0.2668,0.2686,0.2704,0.2704,0.2718,0.2716,0.2704,0.2704,0.2743,0.2727,0.2703,0.277,0.273,0.2735,0.278,0.2791,0.28,0.2783,0.2672,0,0,0,0,0,0.2607,0.2622,0.2642,0.2666,0.2678,0.269,0.2704,0.2708,0.2721,0.2726,0.2727,0.2735,0.2764,0.2765,0.2785,0.281,0.2844,0.2836,0.2845,0.2853,0.2841,0.2937,0.2954,0.277,0.2769,0.2769,0,0,0.2617,0.2629,0.2638,0.2668,0.2683,0.2705,0.2696,0.2722,0.2738,0.2723,0.2748,0.2772,0.2782,0.2824,0.2838,0.2809,0.2934,0.2858,0.2865,0.2848,0.2944,0.2962,0.2978,0.2772,0.2772,0.2771,0,0,0.2636,0.2655,0.2669,0.2687,0.2712,0.2724,0.2732,0.2754,0.2763,0.2788,0.2801,0.2837,0.2855,0.2882,0.2895,0.2962,0.2989,0.2977,0.2997,0.3092,0.3108,0.3123,0.3234,0.3257,0.297,0.297,0.297,0,0.2644,0.2665,0.2681,0.2701,0.2718,0.2732,0.2753,0.2772,0.2797,0.282,0.2799,0.2882,0.2881,0.2957,0.2976,0.2982,0.3051,0.2954,0.3105,0.312,0.3133,0.3243,0.3268,0.2974,0.2973,0.2973,0.2973,0,0.2667,0.2689,0.2704,0.2728,0.2753,0.2776,0.2802,0.283,0.2837,0.286,0.2932,0.295,0.2998,0.3015,0.3005,0.3112,0.314,0.3119,0.3077,0.3156,0.3268,0.3292,0.298,0.2978,0.2977,0.2976,0,0,0.2658,0.2707,0.2709,0.2727,0.2767,0.2789,0.2831,0.2879,0.2915,0.2948,0.3006,0.3055,0.3081,0.3096,0.3119,0.3176,0.3334,0.3182,0.3185,0.3292,0.3583,0.3479,0.3496,0.3356,0.336,0.3363,0.3639,0,0.2664,0.2704,0.2726,0.2766,0.2792,0.2826,0.2863,0.2914,0.2952,0.3015,0.3064,0.3123,0.3111,0.3144,0.3213,0.3296,0.3396,0.3262,0.3488,0.3495,0.3391,0.3518,0.3358,0.3579,0.3663,0.3667,0.367,0,0.2666,0.2696,0.2732,0.2789,0.2803,0.2828,0.2901,0.2935,0.3032,0.3065,0.3149,0.3195,0.33,0.3263,0.3474,0.34,0.3502,0.3561,0.3573,0.3454,0.3434,0.3504,0.362,0.3504,0.3708,0.3705,0.3702,0,0.2643,0.2696,0.2723,0.2741,0.2809,0.2834,0.287,0.2954,0.3,0.3106,0.3161,0.3294,0.3363,0.3501,0.3607,0.3574,0.3833,0.3807,0.3829,0.3826,0.3715,0.3692,0.373,0.3985,0.3985,0.3984,0.3983,0,0.2635,0.2658,0.2713,0.2729,0.2774,0.2819,0.2876,0.2932,0.3026,0.3094,0.3188,0.327,0.3424,0.3575,0.3676,0.3824,0.3911,0.386,0.3891,0.3738,0.3715,0.3622,0.3553,0.3994,0.3992,0.399,0.3988,0,0.2611,0.264,0.268,0.2744,0.2762,0.2794,0.2873,0.2922,0.3005,0.3101,0.3141,0.3304,0.3476,0.3634,0.386,0.3901,0.3935,0.4086,0.3893,0.3891,0.3734,0.3674,0.3641,0.3548,0.4166,0.4165,0.4165,0,0.261,0.2624,0.2682,0.2706,0.2733,0.2783,0.2821,0.2903,0.2957,0.3111,0.3161,0.3349,0.3456,0.3742,0.385,0.4042,0.3932,0.3999,0.3869,0.3717,0.3678,0.3541,0.3455,0.3803,0.3799,0.3796,0.3793,0,0.2619,0.2629,0.2665,0.2701,0.2735,0.2773,0.2829,0.2867,0.2962,0.304,0.3147,0.3237,0.3475,0.3567,0.3782,0.3869,0.3756,0.3939,0.385,0.344,0.3231,0.3156,0.3647,0.3766,0.3769,0.3771,0.3773,0.3774,0.2629,0.2649,0.2678,0.2703,0.2733,0.2741,0.274,0.2804,0.286,0.2933,0.3072,0.3144,0.3305,0.3553,0.3617,0.358,0.359,0.3511,0.3482,0.3382,0.3161,0.3574,0.3655,0.3657,0.3659,0.366,0.3662,0,0.2628,0.2644,0.2679,0.2687,0.2672,0.2699,0.2726,0.2701,0.2712,0.2821,0.2889,0.297,0.3069,0.3183,0.3229,0.3146,0.3051,0.3076,0.2863,0.2827,0.328,0.3125,0.3008,0.3008,0.3008,0.3008,0.3008,0.3008,0.263,0.2645,0.2648,0.2611,0.2602,0.2545,0.2529,0.2511,0.255,0.2532,0.254,0.2616,0.276,0.2878,0.2811,0.2762,0.2575,0.2474,0.2496,0.2811,0.2849,0.2885,0.2723,0.2524,0.2523,0.1938,0.1933,0.1929]},{"header":{"parameterUnit":"m.s-1","parameterCategory":2,"la1":30.2991,"la2":30.254,"lo1":-89.0895,"lo2":-89.0444,"dy":0.0017,"dx":0.0017,"nx":28,"ny":28,"refTime":"2024-09-29T21:00:00:Z","depth":"0","parameterNumber":3,"parameterNumberName":"V-component_of_CURRENTS"},"data":[0,0,0,0,0,0,0,0,0,0,0,0,0,0,0,0,0,0,0,0,0,0,0,0,0,0,0,0,0,0,0,0,0,0,0,0,0,0,0,0,0,0,0,0,0,0,0,0,0,0,0,0,0,0,0,0,0,0,-0.0138,-0.0138,0,-0.0205,-0.0206,-0.0207,-0.0271,-0.0271,-0.0272,-0.0273,-0.0361,-0.0363,-0.0364,0,0,0,0,0,0,0,0,0,0,0,0,0,-0.0054,-0.0055,-0.0138,-0.0138,-0.0139,-0.0205,-0.0206,-0.0207,-0.027,-0.0271,-0.0272,-0.0273,-0.0361,-0.0363,-0.0365,0,0,0,0,0,0,0,0,0,0,0,0,0,-0.0103,-0.0055,-0.0137,-0.0179,-0.0183,-0.0205,-0.0206,-0.0207,-0.027,-0.0271,-0.0273,-0.0274,-0.036,-0.0362,-0.0365,-0.0356,0,0,-0.0372,-0.0373,0,0,0,0,0,0,0,0,-0.01,-0.0106,-0.0172,-0.0176,-0.0181,-0.0231,-0.0209,-0.0258,-0.027,-0.0237,-0.0273,-0.0274,-0.0319,-0.0324,-0.0334,-0.0361,-0.0364,-0.0373,-0.0374,-0.0375,-0.0376,0,0,0,0,0,0,0,-0.0096,-0.0103,-0.0165,-0.0173,-0.0178,-0.0191,-0.0199,-0.0219,-0.0271,-0.024,-0.0245,-0.0252,-0.0321,-0.0332,-0.0337,-0.0366,-0.0372,-0.0375,-0.0376,-0.0377,-0.0377,-0.0375,0,0,0,0,0,0,-0.0087,-0.01,-0.0162,-0.0167,-0.0142,-0.0191,-0.0201,-0.0214,-0.027,-0.028,-0.0251,-0.0255,-0.0327,-0.0334,-0.034,-0.0309,-0.0375,-0.0377,-0.0379,-0.0378,-0.0376,-0.0375,0,0,0,0,0,0,-0.0085,-0.0092,-0.016,-0.0134,-0.0144,-0.0192,-0.0205,-0.0214,-0.0226,-0.0278,-0.0289,-0.0254,-0.0328,-0.0337,-0.0354,-0.0314,-0.0378,-0.0381,-0.038,-0.0378,-0.0376,-0.0262,0,0,0,0,0,0,-0.0083,-0.0091,-0.0088,-0.0134,-0.0145,-0.0157,-0.0205,-0.0215,-0.0228,-0.0234,-0.0284,-0.0293,-0.033,-0.035,-0.0357,-0.0319,-0.0383,-0.0382,-0.0379,-0.0376,-0.0268,-0.0257,-0.0247,0,0,0,0,0,-0.0079,-0.0059,-0.0088,-0.0095,-0.0142,-0.0155,-0.0161,-0.0199,-0.0227,-0.0217,-0.026,-0.0292,-0.0337,-0.0351,-0.0359,-0.0321,-0.0383,-0.038,-0.0377,-0.0273,-0.0259,-0.0247,0,0,0,0,0,0,-0.0007,-0.0066,-0.0097,-0.0094,-0.012,-0.0166,-0.0156,-0.019,-0.0216,-0.0225,-0.0281,-0.0292,-0.0292,-0.0322,-0.0336,-0.0312,-0.0362,-0.036,-0.028,-0.0268,-0.0257,-0.0204,-0.0385,0,0,0,0,0,0.0006,-0.0003,-0.0055,-0.0049,-0.0061,-0.011,-0.0119,-0.0149,-0.0182,-0.0195,-0.0232,-0.0265,-0.0282,-0.0289,-0.0314,-0.03,-0.0295,-0.0279,-0.0268,-0.0259,-0.0221,-0.019,-0.0172,-0.0364,-0.0364,-0.0364,0,0,0.0036,0.0005,-0.0,-0.0035,-0.006,-0.0056,-0.0117,-0.0124,-0.0115,-0.0199,-0.0193,-0.0235,-0.0273,-0.0262,-0.0262,-0.0282,-0.0201,-0.0255,-0.0247,-0.0213,-0.0184,-0.0165,-0.0148,-0.0362,-0.0362,-0.0362,0,0,0.01,0.0063,0.0076,0.0057,0.0022,-0.0006,-0.0005,-0.0051,-0.0064,-0.0075,-0.0125,-0.013,-0.0175,-0.0173,-0.0184,-0.0125,-0.0153,-0.0146,-0.004,-0.0011,0.0006,0.0021,0.0059,0.0076,-0.0133,-0.0132,-0.0132,0,0.0141,0.014,0.0085,0.0095,0.0093,0.0023,0.0047,0.0029,-0.0015,-0.0005,-0.0059,-0.0073,-0.0119,-0.0066,-0.0058,-0.0095,-0.0089,-0.0087,0.0006,0.002,0.0034,0.0069,0.0086,-0.0126,-0.0127,-0.0128,-0.0128,0,0.0205,0.0207,0.0221,0.0201,0.0198,0.0208,0.0169,0.0168,0.013,0.0113,0.0138,0.0086,0.0088,0.0067,0.0014,0.0096,0.0066,0.0009,-0.0021,0.0061,0.0091,0.0108,-0.0118,-0.012,-0.0122,-0.0123,0,0,0.0287,0.0268,0.0273,0.0285,0.0252,0.0262,0.0282,0.0294,0.0334,0.0291,0.0357,0.0317,0.0294,0.0284,0.0234,0.0255,0.0333,0.0176,0.0174,0.0226,0.0409,0.0344,0.0355,0.0283,0.0286,0.0289,0.0395,0,0.0354,0.0398,0.037,0.0425,0.0444,0.04,0.0433,0.0436,0.0429,0.0475,0.0449,0.048,0.0377,0.0387,0.0395,0.0343,0.038,0.0311,0.0313,0.0314,0.0256,0.0373,0.0296,0.038,0.0411,0.0414,0.0415,0,0.0419,0.044,0.0497,0.0533,0.054,0.0565,0.0616,0.064,0.0678,0.0679,0.0712,0.0681,0.0722,0.061,0.0618,0.0572,0.0516,0.0471,0.0473,0.0392,0.0281,0.0301,0.0409,0.0237,0.044,0.0438,0.0436,0,0.0491,0.0534,0.0586,0.0592,0.0616,0.0648,0.0671,0.0705,0.0756,0.0828,0.0878,0.0899,0.0926,0.0871,0.0753,0.0695,0.0753,0.0659,0.0569,0.0563,0.0493,0.0475,0.0448,0.0697,0.0697,0.0697,0.0697,0,0.0563,0.0607,0.0625,0.065,0.0735,0.0727,0.0828,0.0852,0.0927,0.102,0.0998,0.1081,0.0987,0.0983,0.0858,0.0778,0.0841,0.0638,0.0603,0.0527,0.0512,0.0351,0.027,0.0701,0.07,0.0699,0.0699,0,0.062,0.0628,0.0692,0.0738,0.0761,0.0822,0.091,0.0989,0.1045,0.1173,0.1208,0.125,0.1243,0.1142,0.107,0.0925,0.075,0.0793,0.0713,0.0667,0.0389,0.0318,0.0326,0.0273,0.0733,0.0732,0.0732,0,0.0653,0.0686,0.0753,0.0799,0.0819,0.0904,0.0967,0.1038,0.1128,0.1269,0.1348,0.1396,0.1427,0.1316,0.1086,0.0922,0.0766,0.0726,0.0597,0.0413,0.0309,0.0268,0.022,0.0557,0.0555,0.0553,0.0552,0,0.0718,0.073,0.078,0.0863,0.0935,0.1031,0.1129,0.1214,0.1312,0.1422,0.155,0.1592,0.1488,0.1302,0.1069,0.0906,0.0593,0.0686,0.0524,0.0218,0.0149,0.0065,0.0449,0.0537,0.0539,0.054,0.0541,0.0541,0.076,0.0804,0.0856,0.0938,0.1025,0.1133,0.1216,0.133,0.1471,0.1632,0.1672,0.1747,0.1461,0.1133,0.0912,0.0431,0.0503,0.0258,0.0208,0.02,0.0087,0.0446,0.0458,0.0459,0.0459,0.046,0.0461,0,0.0803,0.0848,0.093,0.1026,0.1121,0.1157,0.1309,0.1397,0.1548,0.1699,0.1801,0.167,0.1301,0.0916,0.0303,-0.0,-0.01,-0.0162,-0.0252,-0.0262,0.0075,-0.0005,-0.0128,-0.0128,-0.0128,-0.0128,-0.0128,-0.0127,0.083,0.0897,0.0933,0.108,0.1154,0.1283,0.1363,0.1496,0.1616,0.1756,0.1788,0.1803,0.1463,0.0427,-0.0281,-0.0432,-0.0609,-0.0654,-0.0681,-0.0513,-0.0479,-0.0447,-0.0542,-0.0776,-0.0777,-0.1023,-0.1026,-0.1029]}],[{"header":{"parameterUnit":"m.s-1","parameterCategory":2,"la1":30.2991,"la2":30.254,"lo1":-89.0895,"lo2":-89.0444,"dy":0.0017,"dx":0.0017,"nx":28,"ny":28,"refTime":"2024-09-29T21:00:00:Z","depth":"2","parameterNumber":2,"parameterNumberName":"U-component_of_CURRENTS"},"data":[0,0,0,0,0,0,0,0,0,0,0,0,0,0,0,0,0,0,0,0,0,0,0,0,0,0,0,0,0,0,0,0,0,0,0,0,0,0,0,0,0,0,0,0,0,0,0,0,0,0,0,0,0,0,0,0,0,0,0.184,0.184,0,0.1797,0.1796,0.1795,0.1761,0.1761,0.1761,0.176,0.1732,0.1731,0.1731,0,0,0,0,0,0,0,0,0,0,0,0,0,0.1821,0.1822,0.184,0.184,0.184,0.1797,0.1796,0.1795,0.1761,0.1761,0.176,0.176,0.1732,0.1731,0.173,0,0,0,0,0,0,0,0,0,0,0,0,0,0.1807,0.1822,0.184,0.1819,0.1817,0.1797,0.1796,0.1795,0.1761,0.1761,0.176,0.176,0.1732,0.1731,0.173,0.1728,0,0,0.1727,0.1727,0,0,0,0,0,0,0,0,0.1808,0.1807,0.1823,0.1821,0.1818,0.1786,0.1779,0.1774,0.1761,0.178,0.176,0.176,0.1753,0.175,0.1739,0.1727,0.1726,0.1727,0.1727,0.1726,0.1726,0,0,0,0,0,0,0,0.1809,0.1808,0.1821,0.1822,0.182,0.1787,0.1785,0.1777,0.1766,0.1778,0.1776,0.1775,0.1752,0.174,0.1738,0.1725,0.1727,0.1727,0.1726,0.1726,0.1785,0.1787,0,0,0,0,0,0,0.1823,0.181,0.1822,0.182,0.1815,0.1788,0.1786,0.1795,0.1766,0.1762,0.1775,0.1774,0.1742,0.1739,0.1737,0.1786,0.1726,0.1725,0.1725,0.1783,0.1786,0.1788,0,0,0,0,0,0,0.1823,0.1825,0.1824,0.1815,0.1813,0.1789,0.1799,0.1794,0.1798,0.1764,0.176,0.1786,0.1741,0.1738,0.1752,0.1782,0.1725,0.1724,0.1781,0.1784,0.1787,0.1849,0,0,0,0,0,0,0.1823,0.1825,0.1854,0.1816,0.1814,0.185,0.1799,0.1793,0.1797,0.1795,0.1772,0.1768,0.1741,0.1754,0.1751,0.178,0.1723,0.1778,0.1782,0.1786,0.1844,0.1854,0.1862,0,0,0,0,0,0.1822,0.1867,0.1856,0.1858,0.1849,0.1852,0.1849,0.1828,0.1799,0.1825,0.1797,0.177,0.1778,0.1755,0.1751,0.178,0.1776,0.1781,0.1786,0.184,0.1852,0.1862,0,0,0,0,0,0,0.1881,0.1866,0.1854,0.1894,0.1889,0.1848,0.1879,0.1842,0.1837,0.1845,0.1788,0.1784,0.1813,0.1793,0.1768,0.1814,0.1777,0.1781,0.182,0.183,0.1839,0.1828,0.1723,0,0,0,0,0,0.1905,0.1933,0.1909,0.1946,0.1953,0.1915,0.1916,0.1902,0.1882,0.188,0.1859,0.1843,0.1828,0.1826,0.1827,0.1843,0.1863,0.1866,0.1875,0.1882,0.1874,0.1977,0.1995,0.1804,0.1804,0.1804,0,0,0.1927,0.1935,0.1944,0.196,0.1958,0.1933,0.1917,0.1944,0.191,0.188,0.1867,0.1882,0.1843,0.1865,0.1876,0.1851,0.1945,0.1888,0.1894,0.1882,0.1984,0.2003,0.2019,0.1807,0.1807,0.1806,0,0,0.1957,0.2009,0.2013,0.2012,0.2025,0.2003,0.2012,0.1996,0.1993,0.1995,0.1955,0.1989,0.1973,0.195,0.1927,0.1988,0.1997,0.2003,0.2028,0.2129,0.2146,0.216,0.2198,0.2216,0.2,0.2,0.2,0,0.1982,0.197,0.202,0.2011,0.1999,0.2023,0.1993,0.1992,0.1979,0.1997,0.2013,0.2034,0.2004,0.1995,0.2005,0.2006,0.2056,0.1983,0.2141,0.2156,0.217,0.2206,0.2224,0.2004,0.2003,0.2003,0.2002,0,0.1955,0.1962,0.1982,0.1957,0.1976,0.1978,0.1973,0.2017,0.2035,0.203,0.2099,0.2104,0.2121,0.212,0.2062,0.2137,0.2137,0.2149,0.2111,0.2194,0.2225,0.2243,0.2009,0.2007,0.2006,0.2005,0,0,0.1945,0.1948,0.1948,0.1936,0.1943,0.1957,0.1965,0.1978,0.2005,0.2071,0.2111,0.2113,0.2185,0.2165,0.2153,0.2211,0.2327,0.2217,0.2221,0.2248,0.2533,0.2355,0.2357,0.2395,0.2399,0.2402,0.251,0,0.1886,0.1848,0.1862,0.1834,0.182,0.1875,0.1875,0.1923,0.1993,0.2065,0.2136,0.2182,0.2177,0.222,0.2287,0.2312,0.2381,0.2293,0.2453,0.2456,0.2285,0.2375,0.2212,0.228,0.2528,0.2531,0.2533,0,0.1835,0.181,0.1761,0.1788,0.179,0.1784,0.1867,0.1875,0.1992,0.2064,0.2185,0.2253,0.2325,0.234,0.2479,0.2438,0.2491,0.2522,0.2528,0.2348,0.2313,0.2242,0.2304,0.2563,0.2561,0.2559,0.2557,0,0.1807,0.1765,0.1728,0.1718,0.1731,0.176,0.1788,0.1892,0.1948,0.2087,0.2187,0.2308,0.2395,0.2508,0.2566,0.2558,0.2723,0.2726,0.262,0.2607,0.2483,0.245,0.2861,0.2861,0.2861,0.2861,0.286,0,0.1758,0.1738,0.1716,0.1697,0.1688,0.1736,0.1792,0.1857,0.1986,0.2068,0.2198,0.2303,0.2459,0.2569,0.2616,0.2654,0.2786,0.2628,0.2636,0.2494,0.2463,0.2717,0.2698,0.2865,0.2864,0.2863,0.2862,0,0.1746,0.1731,0.1687,0.167,0.1684,0.1688,0.1783,0.184,0.1966,0.2094,0.2151,0.234,0.2464,0.2575,0.2726,0.2697,0.275,0.2736,0.251,0.2486,0.2555,0.2539,0.2642,0.2637,0.2633,0.2629,0.2626,0,0.1706,0.1679,0.1655,0.1649,0.1642,0.1669,0.1706,0.1819,0.1891,0.2102,0.216,0.2335,0.2423,0.2544,0.2543,0.2586,0.2683,0.2422,0.2351,0.2541,0.254,0.2531,0.2521,0.2229,0.2223,0.2218,0.2214,0,0.1602,0.162,0.1599,0.1581,0.1601,0.162,0.1688,0.1742,0.1887,0.1999,0.2152,0.224,0.2348,0.2303,0.2308,0.231,0.2388,0.2314,0.2655,0.2266,0.2149,0.2147,0.2153,0.217,0.2174,0.2178,0.218,0.2182,0.1542,0.1492,0.1496,0.1492,0.1524,0.1564,0.1581,0.1662,0.1753,0.1874,0.2006,0.2066,0.2085,0.2001,0.1971,0.1967,0.2111,0.2042,0.2061,0.2084,0.1973,0.185,0.1793,0.1795,0.1797,0.1799,0.18,0,0.1426,0.1425,0.1403,0.1413,0.1437,0.15,0.1561,0.1557,0.1616,0.1715,0.1796,0.1646,0.1615,0.169,0.1614,0.1579,0.1613,0.1532,0.1588,0.1631,0.167,0.1541,0.1246,0.1244,0.1243,0.1241,0,0,0.14,0.1333,0.1317,0.1319,0.1363,0.1387,0.1417,0.1399,0.144,0.1412,0.1434,0.1504,0.161,0.1378,0.1351,0.1311,0.1467,0.1266,0.1713,0.1823,0.186,0.1963,0.181,0,0,0,0,0]},{"header":{"parameterUnit":"m.s-1","parameterCategory":2,"la1":30.2991,"la2":30.254,"lo1":-89.0895,"lo2":-89.0444,"dy":0.0017,"dx":0.0017,"nx":28,"ny":28,"refTime":"2024-09-29T21:00:00:Z","depth":"2","parameterNumber":3,"parameterNumberName":"V-component_of_CURRENTS"},"data":[0,0,0,0,0,0,0,0,0,0,0,0,0,0,0,0,0,0,0,0,0,0,0,0,0,0,0,0,0,0,0,0,0,0,0,0,0,0,0,0,0,0,0,0,0,0,0,0,0,0,0,0,0,0,0,0,0,0,-0.0056,-0.0056,0,-0.0097,-0.0098,-0.0099,-0.0138,-0.0138,-0.0138,-0.0138,-0.028,-0.0283,-0.0287,0,0,0,0,0,0,0,0,0,0,0,0,0,-0.0025,-0.0026,-0.0056,-0.0056,-0.0056,-0.0097,-0.0098,-0.0099,-0.0138,-0.0138,-0.0138,-0.0138,-0.0279,-0.0283,-0.0287,0,0,0,0,0,0,0,0,0,0,0,0,0,-0.0052,-0.0026,-0.0055,-0.0078,-0.0081,-0.0097,-0.0098,-0.0099,-0.0138,-0.0138,-0.0138,-0.0139,-0.0277,-0.0282,-0.0288,-0.0313,0,0,-0.0304,-0.0306,0,0,0,0,0,0,0,0,-0.0051,-0.0054,-0.0075,-0.0077,-0.0079,-0.011,-0.0139,-0.0175,-0.0137,-0.0119,-0.0138,-0.0139,-0.023,-0.024,-0.0249,-0.032,-0.0326,-0.0304,-0.0308,-0.031,-0.0311,0,0,0,0,0,0,0,-0.0049,-0.0052,-0.0075,-0.0075,-0.0078,-0.0092,-0.0096,-0.0146,-0.0176,-0.012,-0.0123,-0.0123,-0.0233,-0.0244,-0.0253,-0.0328,-0.0304,-0.0309,-0.0312,-0.0314,-0.0463,-0.0464,0,0,0,0,0,0,-0.0037,-0.005,-0.0073,-0.0076,-0.0063,-0.0092,-0.0097,-0.0102,-0.0173,-0.0183,-0.0123,-0.0125,-0.0234,-0.0247,-0.0258,-0.0313,-0.031,-0.0315,-0.0318,-0.0462,-0.0463,-0.0464,0,0,0,0,0,0,-0.0036,-0.0039,-0.0072,-0.0062,-0.0066,-0.0092,-0.0098,-0.0103,-0.0126,-0.0173,-0.0186,-0.0141,-0.0235,-0.0251,-0.0312,-0.0318,-0.0317,-0.0322,-0.0461,-0.0462,-0.0463,-0.0411,0,0,0,0,0,0,-0.0035,-0.0039,-0.0051,-0.0061,-0.0067,-0.0093,-0.0097,-0.0103,-0.0123,-0.0127,-0.0193,-0.0206,-0.0237,-0.0304,-0.0318,-0.0326,-0.0326,-0.046,-0.0462,-0.0463,-0.0412,-0.041,-0.0409,0,0,0,0,0,-0.0034,-0.0044,-0.0052,-0.0055,-0.0079,-0.0093,-0.0098,-0.0119,-0.0124,-0.014,-0.0181,-0.0204,-0.0323,-0.0309,-0.0325,-0.0334,-0.046,-0.0461,-0.0463,-0.0412,-0.041,-0.0409,0,0,0,0,0,0,-0.0039,-0.0049,-0.0058,-0.0071,-0.0087,-0.0099,-0.0113,-0.0124,-0.0166,-0.0175,-0.0218,-0.0234,-0.0291,-0.0324,-0.0308,-0.0383,-0.0394,-0.0399,-0.035,-0.0349,-0.0347,-0.0284,-0.0331,0,0,0,0,0,-0.0044,-0.0051,-0.0066,-0.0076,-0.0085,-0.0101,-0.0113,-0.0125,-0.0154,-0.0173,-0.0214,-0.0263,-0.0308,-0.0337,-0.0385,-0.0429,-0.0428,-0.0446,-0.0444,-0.0443,-0.0403,-0.04,-0.0393,-0.047,-0.047,-0.0469,0,0,-0.0043,-0.0051,-0.0054,-0.0077,-0.0089,-0.0098,-0.011,-0.0128,-0.0133,-0.0184,-0.0218,-0.0266,-0.032,-0.0365,-0.0393,-0.0395,-0.043,-0.0445,-0.0443,-0.0403,-0.0401,-0.0392,-0.0385,-0.0471,-0.047,-0.047,0,0,-0.0032,-0.0058,-0.0057,-0.0074,-0.0095,-0.0105,-0.0111,-0.0134,-0.0148,-0.0185,-0.022,-0.0258,-0.0339,-0.0359,-0.0384,-0.0405,-0.0425,-0.044,-0.0378,-0.0376,-0.0368,-0.0361,-0.038,-0.0375,-0.0435,-0.0435,-0.0435,0,-0.0027,-0.0035,-0.0061,-0.0068,-0.0074,-0.0106,-0.0104,-0.0125,-0.0164,-0.0161,-0.0194,-0.0259,-0.0322,-0.0335,-0.0348,-0.0396,-0.0404,-0.0378,-0.0369,-0.0362,-0.0356,-0.0376,-0.0371,-0.0433,-0.0433,-0.0433,-0.0433,0,-0.0017,-0.003,-0.0033,-0.0048,-0.0061,-0.007,-0.0093,-0.0108,-0.0129,-0.0136,-0.0157,-0.0222,-0.0241,-0.0288,-0.0328,-0.0318,-0.0344,-0.0368,-0.0361,-0.0344,-0.0368,-0.0364,-0.0429,-0.043,-0.0431,-0.0431,0,0,0.0024,-0.0014,-0.0014,-0.0011,-0.0051,-0.0047,-0.0061,-0.0061,-0.0031,-0.0086,-0.0042,-0.0133,-0.0138,-0.0164,-0.0216,-0.0226,-0.0223,-0.0273,-0.0275,-0.0269,-0.0228,-0.0308,-0.0312,-0.0243,-0.0241,-0.024,-0.0273,0,0.0046,0.0043,0.0019,0.0029,0.0027,-0.0,0.0011,0.0005,-0.0007,0.002,-0.0021,-0.0015,-0.01,-0.0096,-0.0119,-0.0189,-0.0203,-0.0211,-0.0263,-0.0264,-0.0319,-0.0306,-0.027,-0.03,-0.0268,-0.0268,-0.0267,0,0.0072,0.0064,0.0072,0.0089,0.0093,0.01,0.0135,0.0138,0.0153,0.0157,0.0162,0.0135,0.0118,0.0048,-0.0029,-0.003,-0.0113,-0.0175,-0.0178,-0.0254,-0.0335,-0.031,-0.0294,-0.026,-0.026,-0.0261,-0.0261,0,0.0122,0.0118,0.0131,0.0124,0.0126,0.0151,0.0167,0.0184,0.0223,0.0258,0.0303,0.0273,0.0277,0.0188,0.0037,0.0017,-0.0051,-0.0097,-0.0244,-0.0252,-0.0228,-0.0237,-0.013,-0.013,-0.013,-0.013,-0.013,0,0.0155,0.0172,0.0161,0.0163,0.022,0.0211,0.0286,0.0302,0.036,0.043,0.0391,0.0438,0.0315,0.0248,0.0102,-0.0061,-0.0003,-0.0212,-0.0254,-0.0218,-0.0225,-0.0189,-0.0196,-0.0131,-0.0131,-0.0131,-0.0131,0,0.0192,0.0182,0.0202,0.0216,0.0237,0.0275,0.0356,0.0424,0.0465,0.056,0.0587,0.0575,0.0478,0.0324,0.0172,0.0023,-0.0126,-0.0202,-0.0168,-0.0206,-0.0343,-0.0347,-0.0344,-0.0347,-0.035,-0.0352,-0.0353,0,0.0196,0.0205,0.0234,0.027,0.0277,0.034,0.0407,0.0468,0.0545,0.0634,0.0696,0.0647,0.0593,0.0334,0.0097,-0.0149,-0.0176,-0.0288,-0.0324,-0.0318,-0.0359,-0.0359,-0.0359,-0.0281,-0.0282,-0.0283,-0.0283,0,0.0199,0.0214,0.0233,0.0305,0.0373,0.0458,0.0553,0.0634,0.0721,0.0794,0.087,0.0832,0.0591,0.0349,0.0001,-0.016,-0.0247,-0.0316,-0.0278,-0.0251,-0.0266,-0.0305,-0.0305,-0.029,-0.029,-0.0289,-0.0289,-0.0288,0.0206,0.0226,0.0271,0.0351,0.0443,0.0575,0.0667,0.0772,0.0893,0.0992,0.0945,0.0884,0.0606,0.0153,-0.0088,-0.0309,-0.0331,-0.042,-0.0413,-0.0406,-0.0411,-0.0432,-0.0488,-0.0489,-0.0489,-0.049,-0.049,0,0.0206,0.0256,0.0324,0.0438,0.0564,0.0609,0.0776,0.0868,0.101,0.1031,0.1039,0.0751,0.0461,0.0192,-0.0146,-0.0399,-0.037,-0.0458,-0.0361,-0.0355,-0.0349,-0.0347,-0.0409,-0.0409,-0.0409,-0.0409,0,0,0.0224,0.0279,0.0325,0.0526,0.0631,0.0813,0.0919,0.1027,0.1081,0.1068,0.1012,0.0846,0.0513,0.0269,-0.0042,-0.02,-0.0211,-0.0231,-0.0278,-0.0122,-0.0112,-0.0323,-0.0315,0,0,0,0,0]}],[{"header":{"parameterUnit":"m.s-1","parameterCategory":2,"la1":30.2991,"la2":30.254,"lo1":-89.0895,"lo2":-89.0444,"dy":0.0017,"dx":0.0017,"nx":28,"ny":28,"refTime":"2024-09-29T21:00:00:Z","depth":"4","parameterNumber":2,"parameterNumberName":"U-component_of_CURRENTS"},"data":[0,0,0,0,0,0,0,0,0,0,0,0,0,0,0,0,0,0,0,0,0,0,0,0,0,0,0,0,0,0,0,0,0,0,0,0,0,0,0,0,0,0,0,0,0,0,0,0,0,0,0,0,0,0,0,0,0,0,0.061,0.061,0,0.0579,0.0578,0.0577,0.0579,0.058,0.0581,0.0582,0.0597,0.0596,0.0596,0,0,0,0,0,0,0,0,0,0,0,0,0,0.0601,0.0602,0.061,0.061,0.061,0.0579,0.0578,0.0577,0.0579,0.058,0.0581,0.0582,0.0597,0.0596,0.0596,0,0,0,0,0,0,0,0,0,0,0,0,0,0.0587,0.0602,0.061,0.0611,0.0611,0.0579,0.0578,0.0577,0.0579,0.058,0.0581,0.0583,0.0597,0.0596,0.0596,0.0565,0,0,0.0594,0.0593,0,0,0,0,0,0,0,0,0.0588,0.0587,0.0611,0.0611,0.0611,0.0588,0.058,0.0577,0.0578,0.0586,0.0582,0.0583,0.06,0.0599,0.0583,0.0565,0.0566,0.0593,0.0593,0.0593,0.0593,0,0,0,0,0,0,0,0.0589,0.0588,0.0593,0.0611,0.0611,0.0589,0.0588,0.0579,0.0583,0.0586,0.0587,0.059,0.06,0.0584,0.0584,0.0566,0.0594,0.0593,0.0593,0.0592,0.0664,0.0666,0,0,0,0,0,0,0.0604,0.0589,0.0594,0.0593,0.0608,0.0589,0.0588,0.059,0.0582,0.0583,0.0589,0.0591,0.0584,0.0584,0.0584,0.066,0.0593,0.0592,0.0592,0.0662,0.0665,0.0667,0,0,0,0,0,0,0.0604,0.0605,0.0595,0.0594,0.0592,0.0588,0.0591,0.0589,0.0592,0.0585,0.0587,0.0596,0.0585,0.0585,0.06,0.0656,0.0592,0.0591,0.0659,0.0663,0.0666,0.0739,0,0,0,0,0,0,0.0604,0.0605,0.0619,0.0595,0.0593,0.0591,0.059,0.0588,0.0593,0.0595,0.0591,0.0593,0.0586,0.0601,0.0599,0.0654,0.0591,0.0656,0.0661,0.0665,0.0734,0.0745,0.0754,0,0,0,0,0,0.0604,0.0604,0.0619,0.0621,0.0609,0.0592,0.0588,0.0587,0.0592,0.0593,0.0599,0.0594,0.0629,0.06,0.0598,0.0655,0.0654,0.066,0.0665,0.0729,0.0742,0.0754,0,0,0,0,0,0,0.0599,0.0604,0.062,0.0623,0.0622,0.0595,0.0593,0.0594,0.0594,0.0611,0.0598,0.0599,0.065,0.0633,0.0602,0.0693,0.0651,0.0656,0.0701,0.0713,0.0723,0.0725,0.059,0,0,0,0,0,0.061,0.0618,0.0617,0.0623,0.0622,0.0613,0.0609,0.0618,0.0613,0.0614,0.0619,0.0637,0.0664,0.067,0.069,0.0709,0.0682,0.0754,0.0764,0.0773,0.0775,0.0801,0.0813,0.0684,0.0684,0.0684,0,0,0.0608,0.0615,0.0619,0.0625,0.0619,0.0616,0.0612,0.0619,0.0633,0.0617,0.0641,0.0672,0.068,0.0726,0.0747,0.0718,0.0788,0.0779,0.0786,0.0784,0.0808,0.082,0.0831,0.0688,0.0687,0.0687,0,0,0.0597,0.0617,0.0618,0.0613,0.0627,0.0633,0.0641,0.0642,0.0661,0.0678,0.0704,0.0753,0.0762,0.0797,0.0808,0.0876,0.085,0.0909,0.0947,0.0973,0.0983,0.0992,0.0934,0.0937,0.0903,0.0903,0.0903,0,0.0601,0.0603,0.0614,0.0605,0.0616,0.0642,0.0649,0.0656,0.0673,0.0702,0.0699,0.0784,0.0792,0.0866,0.0905,0.0899,0.0888,0.0896,0.0984,0.0993,0.1,0.0939,0.0942,0.0907,0.0907,0.0906,0.0906,0,0.0572,0.0586,0.058,0.0595,0.0611,0.0619,0.0647,0.0685,0.0721,0.0736,0.0827,0.0854,0.0903,0.0938,0.0935,0.1028,0.099,0.1001,0.0947,0.1017,0.0948,0.0949,0.0913,0.0911,0.091,0.0909,0,0,0.0545,0.0565,0.0561,0.0587,0.0616,0.0629,0.0675,0.0727,0.0768,0.0815,0.0867,0.0948,0.0989,0.1008,0.1049,0.1081,0.1112,0.1074,0.1074,0.1004,0.1122,0.1086,0.1082,0.1155,0.1157,0.1159,0.1036,0,0.0528,0.0531,0.0551,0.058,0.0594,0.0648,0.0675,0.0735,0.0797,0.0849,0.0918,0.0985,0.1006,0.1065,0.11,0.1127,0.1128,0.1141,0.1076,0.1071,0.1023,0.1088,0.1164,0.1036,0.1037,0.1037,0.1037,0,0.0487,0.0508,0.0527,0.06,0.061,0.064,0.0745,0.0781,0.0859,0.092,0.1012,0.1039,0.1118,0.1123,0.1164,0.118,0.1156,0.1154,0.115,0.1094,0.1041,0.0964,0.1038,0.1038,0.1038,0.1038,0.1038,0,0.0467,0.0502,0.0536,0.0543,0.0605,0.0659,0.0724,0.0808,0.0854,0.0992,0.1036,0.1116,0.1168,0.1178,0.1163,0.1176,0.117,0.1168,0.1092,0.1084,0.1115,0.1108,0.1178,0.1179,0.1179,0.1179,0.118,0,0.0437,0.0464,0.0533,0.054,0.0599,0.0663,0.0744,0.0836,0.0928,0.0976,0.1082,0.113,0.1199,0.1185,0.1161,0.1124,0.1156,0.1103,0.1076,0.1142,0.1139,0.1112,0.1106,0.1174,0.1175,0.1176,0.1177,0,0.0391,0.0427,0.0467,0.0549,0.0585,0.0634,0.0753,0.08,0.0924,0.0999,0.1043,0.114,0.1158,0.1153,0.1154,0.1119,0.1084,0.1053,0.1071,0.1045,0.0961,0.0961,0.0945,0.0943,0.0941,0.094,0.0939,0,0.0369,0.0377,0.0457,0.049,0.0535,0.062,0.0666,0.0802,0.0856,0.0984,0.1,0.1057,0.1102,0.1047,0.1077,0.1011,0.1014,0.0966,0.1026,0.0975,0.0949,0.0951,0.0952,0.0937,0.0936,0.0936,0.0936,0,0.0319,0.0341,0.0369,0.0426,0.0492,0.0551,0.0646,0.0674,0.0804,0.0901,0.0958,0.0979,0.0995,0.1006,0.0978,0.0933,0.0996,0.0951,0.0954,0.1009,0.0965,0.0942,0.0945,0.093,0.0931,0.0932,0.0932,0,0.0281,0.0282,0.031,0.0367,0.0433,0.0478,0.0539,0.0608,0.0669,0.0818,0.0818,0.09,0.0972,0.0961,0.0921,0.0901,0.0894,0.0873,0.088,0.0886,0.0937,0.0876,0.0797,0,0,0,0,0,0.0237,0.0234,0.0262,0.0317,0.0374,0.0418,0.0509,0.0564,0.0674,0.0695,0.0765,0.078,0.081,0.0847,0.0811,0.087,0.0872,0.0826,0.0845,0.0902,0.0908,0.0979,0,0,0,0,0,0,0.0206,0.0215,0.0226,0.0252,0.029,0.0344,0.0407,0.0481,0.0504,0.0622,0.0637,0.0735,0.0756,0.081,0.0795,0.0802,0.08,0.0873,0.0871,0.0898,0.0904,0.0909,0.0984,0,0,0,0,0]},{"header":{"parameterUnit":"m.s-1","parameterCategory":2,"la1":30.2991,"la2":30.254,"lo1":-89.0895,"lo2":-89.0444,"dy":0.0017,"dx":0.0017,"nx":28,"ny":28,"refTime":"2024-09-29T21:00:00:Z","depth":"4","parameterNumber":3,"parameterNumberName":"V-component_of_CURRENTS"},"data":[0,0,0,0,0,0,0,0,0,0,0,0,0,0,0,0,0,0,0,0,0,0,0,0,0,0,0,0,0,0,0,0,0,0,0,0,0,0,0,0,0,0,0,0,0,0,0,0,0,0,0,0,0,0,0,0,0,0,0.0242,0.0242,0,0.0226,0.0226,0.0226,0.0229,0.0229,0.023,0.023,0.0228,0.0227,0.0227,0,0,0,0,0,0,0,0,0,0,0,0,0,0.0234,0.0234,0.0242,0.0242,0.0242,0.0226,0.0226,0.0226,0.0229,0.0229,0.023,0.023,0.0228,0.0227,0.0227,0,0,0,0,0,0,0,0,0,0,0,0,0,0.0228,0.0234,0.0242,0.0244,0.0244,0.0226,0.0226,0.0225,0.0229,0.0229,0.023,0.0231,0.0228,0.0227,0.0227,0.0207,0,0,0.0224,0.0224,0,0,0,0,0,0,0,0,0.0228,0.0228,0.0243,0.0244,0.0244,0.0232,0.0222,0.0221,0.0228,0.0232,0.023,0.0231,0.0231,0.023,0.0222,0.0207,0.0207,0.0224,0.0224,0.0223,0.0223,0,0,0,0,0,0,0,0.0229,0.0228,0.0234,0.0243,0.0244,0.0231,0.0231,0.0221,0.0226,0.0232,0.0232,0.0234,0.0231,0.0223,0.0223,0.0207,0.0224,0.0224,0.0223,0.0223,0.0164,0.0163,0,0,0,0,0,0,0.0236,0.0229,0.0234,0.0234,0.024,0.0231,0.0231,0.0233,0.0226,0.0226,0.0233,0.0234,0.0224,0.0223,0.0223,0.0195,0.0223,0.0223,0.0222,0.0165,0.0163,0.0162,0,0,0,0,0,0,0.0236,0.0237,0.0235,0.0232,0.0232,0.0231,0.0233,0.0233,0.023,0.0228,0.0228,0.0233,0.0225,0.0224,0.0225,0.0195,0.0222,0.0222,0.0166,0.0164,0.0163,0.0142,0,0,0,0,0,0,0.0236,0.0237,0.0242,0.0233,0.0232,0.0229,0.0233,0.0232,0.0231,0.0232,0.0227,0.0227,0.0225,0.0226,0.0224,0.0194,0.0221,0.0167,0.0165,0.0163,0.0144,0.014,0.0136,0,0,0,0,0,0.0236,0.0236,0.0242,0.0243,0.0239,0.0229,0.0227,0.0227,0.023,0.0227,0.023,0.0228,0.021,0.0225,0.0223,0.0192,0.0168,0.0166,0.0163,0.0146,0.0141,0.0136,0,0,0,0,0,0,0.0229,0.0236,0.0243,0.0244,0.0241,0.023,0.0228,0.0227,0.0224,0.0229,0.0227,0.0227,0.0208,0.0207,0.0223,0.0167,0.0183,0.018,0.017,0.0165,0.0161,0.0149,0.022,0,0,0,0,0,0.0232,0.0237,0.0238,0.0238,0.0239,0.0234,0.0231,0.0231,0.0227,0.0227,0.0225,0.0215,0.0192,0.0189,0.0174,0.0156,0.0127,0.0129,0.0125,0.0122,0.0109,0.0022,0.0008,0.0154,0.0154,0.0154,0,0,0.0228,0.0234,0.0235,0.0238,0.0235,0.0233,0.0233,0.0229,0.0225,0.0227,0.0224,0.0205,0.0185,0.0159,0.0149,0.0158,0.0072,0.0119,0.0116,0.0105,0.0017,0.0003,-0.001,0.0152,0.0153,0.0153,0,0,0.0219,0.0229,0.023,0.0232,0.0235,0.0231,0.0232,0.0227,0.0225,0.0222,0.0207,0.0174,0.0166,0.0129,0.0112,0.0077,0.0053,0.0069,0.0041,-0.0043,-0.0056,-0.0068,-0.0092,-0.0106,0.0069,0.0069,0.0069,0,0.0214,0.022,0.0226,0.0229,0.0231,0.0232,0.023,0.0225,0.0221,0.0207,0.0224,0.0154,0.0144,0.0075,0.0063,0.0065,0.0033,0.0064,-0.005,-0.0062,-0.0074,-0.0096,-0.0112,0.0068,0.0068,0.0068,0.0068,0,0.0207,0.0215,0.0214,0.0223,0.0223,0.0221,0.0221,0.0214,0.0215,0.0201,0.0148,0.0121,0.0074,0.0056,0.0054,-0.0047,-0.0034,-0.0046,-0.0038,-0.0091,-0.0109,-0.0125,0.0066,0.0066,0.0067,0.0067,0,0,0.0185,0.0206,0.0207,0.0216,0.0223,0.022,0.0211,0.0191,0.0171,0.0152,0.0107,0.0052,0.0023,-0.0001,-0.0031,-0.0104,-0.02,-0.011,-0.0114,-0.0133,-0.0354,-0.0279,-0.0288,-0.0241,-0.0245,-0.0247,-0.0321,0,0.0177,0.0189,0.0196,0.0201,0.0208,0.0207,0.0198,0.018,0.016,0.012,0.006,0.0013,0.0006,-0.0029,-0.0106,-0.0183,-0.0248,-0.0176,-0.0301,-0.0304,-0.0232,-0.0307,-0.0259,-0.0333,-0.0337,-0.0339,-0.0341,0,0.0166,0.018,0.019,0.02,0.0201,0.02,0.0176,0.0168,0.0109,0.0087,0.0015,-0.0022,-0.0126,-0.0125,-0.0288,-0.0244,-0.0303,-0.0357,-0.0361,-0.0301,-0.026,-0.0279,-0.0369,-0.0367,-0.0365,-0.0363,-0.0362,0,0.0156,0.017,0.0182,0.0189,0.02,0.0193,0.0189,0.0151,0.0141,0.0054,0.0028,-0.0092,-0.0144,-0.0266,-0.0341,-0.0336,-0.0507,-0.0511,-0.0496,-0.0489,-0.0522,-0.0509,-0.0644,-0.0644,-0.0643,-0.0643,-0.0643,0,0.0149,0.0155,0.0181,0.0191,0.0197,0.0197,0.0181,0.0156,0.0112,0.0089,0.0009,-0.0039,-0.019,-0.028,-0.0368,-0.0462,-0.0527,-0.052,-0.0525,-0.0521,-0.0508,-0.0531,-0.0517,-0.0646,-0.0645,-0.0645,-0.0644,0,0.0138,0.0156,0.0172,0.019,0.0198,0.0202,0.0205,0.0191,0.0146,0.0107,0.0082,-0.0019,-0.0136,-0.0251,-0.0432,-0.047,-0.0585,-0.0598,-0.0548,-0.0545,-0.0501,-0.0488,-0.0615,-0.0613,-0.0612,-0.0611,-0.061,0,0.0134,0.0146,0.0181,0.02,0.0211,0.0221,0.023,0.0207,0.0196,0.0129,0.0112,0.0003,-0.0068,-0.0251,-0.0383,-0.0539,-0.055,-0.0593,-0.0596,-0.0517,-0.051,-0.0498,-0.0486,-0.0608,-0.0608,-0.0607,-0.0607,0,0.0132,0.0147,0.017,0.0208,0.023,0.0252,0.0261,0.0257,0.0229,0.0195,0.0134,0.004,-0.0075,-0.0225,-0.0328,-0.0445,-0.0569,-0.058,-0.0584,-0.0587,-0.051,-0.0501,-0.0491,-0.0602,-0.0603,-0.0603,-0.0604,0,0.0134,0.0149,0.0183,0.0213,0.0248,0.027,0.0274,0.0269,0.0259,0.0199,0.0181,0.0051,-0.0032,-0.0174,-0.0282,-0.0376,-0.0408,-0.0437,-0.0449,-0.0456,-0.0381,-0.0258,-0.0298,0,0,0,0,0,0.0135,0.0153,0.0184,0.0218,0.0252,0.0269,0.0292,0.0291,0.0272,0.0245,0.0216,0.0116,-0.004,-0.0121,-0.0205,-0.0268,-0.0431,-0.0368,-0.0471,-0.0577,-0.0582,-0.0515,0,0,0,0,0,0,0.0136,0.0167,0.0181,0.0218,0.0239,0.0273,0.029,0.0282,0.0266,0.0236,0.0152,0.011,-0.0048,0.0006,-0.0205,-0.0236,-0.0307,-0.0447,-0.0448,-0.0574,-0.0579,-0.0583,-0.0516,0,0,0,0,0]}]]